| time (UTC) | temp C | wind direction | speed KPH | gust KPH | rain 1hr cm | rain 24hr cm | rain mn cm | humidity % | barometer mb |
| 20260505230028 | 28 | 308 | 0.0 | 3.2 | 0.00 | 0.00 | 0.00 | 59 | 1002.8 |
| 20260505224525 | 28 | 304 | 0.0 | 1.6 | 0.00 | 0.00 | 0.00 | 54 | 1002.2 |
| 20260505223023 | 29 | 340 | 0.0 | 1.6 | 0.00 | 0.00 | 0.00 | 51 | 1002.3 |
| 20260505221522 | 31 | 121 | 0.0 | 1.6 | 0.00 | 0.00 | 0.00 | 51 | 1002.1 |
| 20260505220042 | 32 | 13 | 0.0 | 1.6 | 0.00 | 0.00 | 0.00 | 48 | 1001.8 |
| 20260505214528 | 32 | 105 | 0.0 | 3.2 | 0.00 | 0.00 | 0.00 | 46 | 1001.9 |
| 20260505213021 | 33 | 173 | 0.0 | 6.4 | 0.00 | 0.00 | 0.00 | 47 | 1001.9 |
| 20260505211517 | 33 | 241 | 0.0 | 3.2 | 0.00 | 0.00 | 0.00 | 49 | 1002.1 |
| 20260505210015 | 33 | 307 | 0.0 | 3.2 | 0.00 | 0.00 | 0.00 | 48 | 1002.3 |
| 20260505204512 | 32 | 260 | 0.0 | 8.0 | 0.00 | 0.00 | 0.00 | 50 | 1002.4 |
| 20260505203012 | 32 | 194 | 0.0 | 4.8 | 0.00 | 0.00 | 0.00 | 52 | 1002.5 |
| 20260505201507 | 32 | 257 | 0.0 | 6.4 | 0.00 | 0.00 | 0.00 | 54 | 1002.8 |
| 20260505200006 | 32 | 139 | 1.6 | 8.0 | 0.00 | 0.00 | 0.00 | 55 | 1002.9 |
| 20260505194501 | 31 | 113 | 0.0 | 9.7 | 0.00 | 0.00 | 0.00 | 58 | 1003.1 |
| 20260505193100 | 31 | 215 | 3.2 | 11.3 | 0.00 | 0.00 | 0.00 | 55 | 1003.0 |
| 20260505191558 | 31 | 276 | 0.0 | 9.7 | 0.00 | 0.00 | 0.00 | 60 | 1002.9 |
| 20260505190053 | 30 | 218 | 0.0 | 6.4 | 0.00 | 0.00 | 0.00 | 61 | 1003.1 |
| 20260505184553 | 28 | 293 | 1.6 | 8.0 | 0.00 | 0.00 | 0.00 | 64 | 1003.3 |
| 20260505183052 | 28 | 211 | 3.2 | 12.9 | 0.00 | 0.00 | 0.00 | 63 | 1003.3 |
| 20260505181544 | 28 | 208 | 1.6 | 9.7 | 0.00 | 0.00 | 0.00 | 66 | 1003.3 |
| 20260505180042 | 27 | 91 | 1.6 | 14.5 | 0.00 | 0.00 | 0.00 | 67 | 1003.4 |
| 20260505174542 | 27 | 241 | 3.2 | 11.3 | 0.00 | 0.00 | 0.00 | 67 | 1003.4 |
| 20260505173039 | 27 | 259 | 1.6 | 11.3 | 0.00 | 0.00 | 0.00 | 67 | 1003.5 |
| 20260505171537 | 27 | 194 | 1.6 | 12.9 | 0.00 | 0.00 | 0.00 | 68 | 1003.6 |
| 20260505170036 | 27 | 174 | 3.2 | 17.7 | 0.00 | 0.00 | 0.00 | 68 | 1003.5 |
| 20260505164552 | 27 | 276 | 3.2 | 11.3 | 0.00 | 0.00 | 0.00 | 69 | 1003.6 |
| 20260505163036 | 26 | 207 | 0.0 | 12.9 | 0.00 | 0.00 | 0.00 | 71 | 1003.4 |
| 20260505161537 | 26 | 153 | 3.2 | 16.1 | 0.00 | 0.00 | 0.00 | 71 | 1003.5 |
| 20260505153021 | 24 | 257 | 1.6 | 17.7 | 0.00 | 0.00 | 0.00 | 77 | 1003.2 |
| 20260505151519 | 24 | 259 | 4.8 | 14.5 | 0.00 | 0.00 | 0.00 | 77 | 1003.4 |
| 20260505124508 | 21 | 281 | 3.2 | 12.9 | 0.00 | 0.00 | 0.00 | 80 | 1002.8 |
| 20260505123011 | 21 | 236 | 3.2 | 11.3 | 0.00 | 0.00 | 0.00 | 80 | 1002.7 |
| 20260505121505 | -17 | 0.0 | 0.0 | 0.00 | 0.00 | 0.00 | 1002.4 | ||
| 20260505120000 | -17 | 0.0 | 0.0 | 0.00 | 0.00 | 0.00 | 1002.2 | ||
| 20260505114557 | -17 | 0.0 | 0.0 | 0.00 | 0.00 | 0.00 | 1002.3 | ||
| 20260505113111 | -17 | 0.0 | 0.0 | 0.00 | 0.00 | 0.00 | 1002.0 | ||
| 20260505111548 | -17 | 0.0 | 0.0 | 0.00 | 0.00 | 0.00 | 1002.1 | ||
| 20260505101530 | -17 | 0.0 | 0.0 | 0.00 | 0.00 | 0.00 | 1002.2 | ||
| 20260505100026 | -17 | 0.0 | 0.0 | 0.00 | 0.00 | 0.00 | 1002.2 | ||
| 20260505094521 | -17 | 0.0 | 0.0 | 0.00 | 0.00 | 0.00 | 1002.1 | ||
| 20260505093018 | -17 | 0.0 | 0.0 | 0.00 | 0.00 | 0.00 | 1002.4 | ||
| 20260505091515 | 21 | 294 | 6.4 | 17.7 | 0.00 | 0.00 | 0.00 | 80 | 1002.6 |
| 20260505090012 | 21 | 273 | 3.2 | 16.1 | 0.00 | 0.00 | 0.00 | 80 | 1002.6 |
| 20260505084532 | 21 | 199 | 0.0 | 11.3 | 0.00 | 0.00 | 0.00 | 80 | 1002.6 |
| 20260505083009 | 21 | 289 | 3.2 | 14.5 | 0.00 | 0.00 | 0.00 | 80 | 1002.7 |
| 20260505081515 | 21 | 315 | 1.6 | 12.9 | 0.00 | 0.00 | 0.00 | 80 | 1002.7 |
| 20260505080005 | 22 | 165 | 3.2 | 17.7 | 0.00 | 0.00 | 0.00 | 79 | 1002.7 |
| 20260505074507 | 22 | 302 | 4.8 | 14.5 | 0.00 | 0.00 | 0.00 | 79 | 1002.8 |
| 20260505073108 | 22 | 243 | 3.2 | 16.1 | 0.00 | 0.00 | 0.00 | 78 | 1003.2 |
| 20260505071559 | 22 | 290 | 3.2 | 16.1 | 0.00 | 0.00 | 0.00 | 77 | 1003.5 |
| 20260505070055 | 22 | 250 | 3.2 | 12.9 | 0.00 | 0.00 | 0.00 | 77 | 1003.8 |
| 20260505064559 | 22 | 93 | 1.6 | 14.5 | 0.00 | 0.00 | 0.00 | 76 | 1003.9 |
| 20260505063054 | 22 | 278 | 3.2 | 14.5 | 0.00 | 0.00 | 0.00 | 75 | 1004.1 |
| 20260505061551 | 22 | 274 | 3.2 | 14.5 | 0.00 | 0.00 | 0.00 | 74 | 1004.1 |
| 20260505060046 | 23 | 260 | 1.6 | 14.5 | 0.00 | 0.00 | 0.00 | 73 | 1004.2 |
| 20260505054546 | 23 | 294 | 3.2 | 12.9 | 0.00 | 0.00 | 0.00 | 73 | 1004.1 |
| 20260505053107 | 23 | 124 | 1.6 | 11.3 | 0.00 | 0.00 | 0.00 | 73 | 1004.1 |
| 20260505051542 | 23 | 288 | 1.6 | 14.5 | 0.00 | 0.00 | 0.00 | 73 | 1004.1 |
| 20260505041543 | 23 | 238 | 1.6 | 12.9 | 0.00 | 0.00 | 0.00 | 72 | 1004.4 |
| 20260505040039 | 23 | 245 | 0.0 | 17.7 | 0.00 | 0.00 | 0.00 | 72 | 1004.5 |
| 20260505034538 | 23 | 264 | 4.8 | 16.1 | 0.00 | 0.00 | 0.00 | 71 | 1004.5 |
| 20260505033045 | 23 | 291 | 6.4 | 14.5 | 0.00 | 0.00 | 0.00 | 71 | 1004.4 |
| 20260505031536 | 23 | 139 | 3.2 | 12.9 | 0.00 | 0.00 | 0.00 | 71 | 1004.4 |
| 20260505030036 | 23 | 311 | 1.6 | 12.9 | 0.00 | 0.00 | 0.00 | 70 | 1004.5 |
| 20260505024535 | 23 | 262 | 4.8 | 16.1 | 0.00 | 0.00 | 0.00 | 70 | 1004.6 |
| 20260505023035 | 23 | 239 | 3.2 | 11.3 | 0.00 | 0.00 | 0.00 | 69 | 1004.4 |
| 20260505021534 | 23 | 236 | 1.6 | 12.9 | 0.00 | 0.00 | 0.00 | 69 | 1004.2 |
| 20260505020033 | 23 | 159 | 3.2 | 11.3 | 0.00 | 0.00 | 0.00 | 68 | 1004.3 |
| 20260505014533 | 24 | 252 | 3.2 | 14.5 | 0.00 | 0.00 | 0.00 | 68 | 1004.2 |
| 20260505013032 | 24 | 295 | 1.6 | 12.9 | 0.00 | 0.00 | 0.00 | 68 | 1004.4 |
| 20260505011553 | 24 | 289 | 4.8 | 17.7 | 0.00 | 0.00 | 0.00 | 67 | 1004.3 |
| 20260505010031 | 24 | 205 | 3.2 | 14.5 | 0.00 | 0.00 | 0.00 | 67 | 1004.4 |
| 20260505004531 | 24 | 243 | 4.8 | 22.5 | 0.00 | 0.00 | 0.00 | 66 | 1004.3 |
| 20260505003030 | 25 | 287 | 4.8 | 24.1 | 0.00 | 0.00 | 0.00 | 65 | 1004.4 |
| 20260505001529 | 25 | 180 | 4.8 | 16.1 | 0.00 | 0.00 | 0.00 | 65 | 1004.5 |
| 20260505000037 | 25 | 264 | 3.2 | 14.5 | 0.00 | 0.00 | 0.00 | 64 | 1004.6 |
| 20260504234529 | 25 | 205 | 3.2 | 16.1 | 0.00 | 0.00 | 0.00 | 64 | 1004.6 |
| 20260504233025 | 25 | 152 | 4.8 | 16.1 | 0.00 | 0.00 | 0.00 | 63 | 1005.0 |
| 20260504231524 | 25 | 215 | 3.2 | 17.7 | 0.00 | 0.00 | 0.00 | 63 | 1004.9 |